Location: Narrabri
(30.3170°S, 149.7830°E)
Time: 13:24:52
(UTC+11:00)

N. Korean satellite - Pass Details

Date: 07 October 2017
Orbit: 461 x 513 km, 97.2° (Epoch: 09 December)

Event Time Altitude Azimuth Distance (km) Brightness Sun altitude
Rises 19:32:35 0° 165° (SSE) 2,660 10.3 -6.5°
Reaches altitude 10° 19:34:43 10° 160° (SSE) 1,766 9.3 -7.0°
Maximum altitude 19:38:30 59° 80° (E) 604 6.7 -7.8°
Drops below altitude 10° 19:42:12 10° 360° (N) 1,734 9.3 -8.6°
Sets 19:44:17 0° 356° (N) 2,607 10.2 -9.0°
